Wind_Speed
23 24 24 25 25 25 24 24 24 26 27 29 31 32 33 34 35 36 38 40 42 44 45 45 45 45 44 43 42 40 38 38 37 37 38 38 37 37 37 36 35 33 32 31 31 30 30 30 30 30 31 31 30 29 28 28 27 26 25 24 23 23 22 22 22 21 22 23 24 25 25 26 27 29 30 32 33 34 36 38 39 40 40 41 41
26 26 25 25 26 26 26 27 28 28 29 31 32 34 37 39 39 40 40 41 44 46 48 48 48 47 47 46 44 42 41 39 39 39 40 40 39 39 38 37 36 35 33 33 32 32 32 32 31 31 31 31 31 30 29 28 28 27 26 25 25 24 24 24 24 24 24 25 26 28 29 29 29 30 31 32 33 34 35 36 37 38 40 41 42
32 31 30 28 26 25 27 28 29 30 32 33 33 34 37 40 43 44 45 46 47 48 50 50 50 50 49 48 47 45 43 42 41 41 41 41 41 40 40 39 38 36 35 34 34 34 34 34 34 33 32 32 32 31 31 30 29 28 28 27 26 26 26 26 27 27 27 27 28 30 31 32 32 32 33 34 35 36 37 38 39 39 41 43 44
37 37 36 34 33 33 34 34 34 33 34 35 35 35 37 40 42 44 47 49 51 53 53 53 53 53 52 52 50 48 46 45 43 43 43 43 42 42 41 40 39 38 38 37 37 36 36 36 36 35 34 34 34 33 32 31 31 30 29 28 28 28 28 28 29 29 30 30 30 32 34 35 35 36 36 36 36 37 39 40 42 43 44 46 47
45 44 43 43 43 43 43 43 42 41 39 38 37 37 38 41 43 44 45 48 51 55 57 57 57 56 55 54 52 50 49 47 46 45 44 44 44 43 42 42 41 41 40 40 40 39 38 38 38 37 35 35 36 35 34 33 32 31 30 29 29 29 29 30 31 32 32 33 33 34 35 37 38 38 38 38 38 38 39 41 43 44 46 47 48
50 49 48 48 50 51 53 53 52 50 47 45 43 41 40 42 45 46 46 47 49 52 56 59 60 60 58 57 55 53 52 50 49 48 47 46 46 45 44 44 44 44 44 44 43 42 41 40 40 38 37 37 38 38 37 36 35 32 31 31 31 31 31 31 32 33 34 35 36 36 37 38 39 39 39 39 39 39 40 41 42 44 45 47 48
52 49 47 48 49 51 54 57 58 57 55 51 49 48 47 47 47 46 46 48 50 52 54 57 60 62 62 61 59 57 55 53 51 51 50 50 48 47 47 46 46 46 47 48 47 46 44 43 42 41 39 39 39 40 39 39 37 35 33 32 32 32 32 32 33 34 35 36 37 38 39 39 40 40 40 40 40 40 41 41 42 43 45 47 48
52 50 48 48 48 48 50 52 55 57 57 56 54 52 51 50 49 47 46 48 51 52 51 52 55 60 63 64 63 61 59 57 55 54 55 54 53 51 49 48 49 49 50 51 50 49 48 46 45 44 43 42 41 41 41 41 39 37 35 34 34 33 33 33 34 34 36 37 38 39 40 40 41 41 41 41 42 42 43 43 43 44 45 46 48
53 52 50 47 46 46 47 49 51 53 54 55 55 53 51 51 50 49 47 48 50 51 50 50 51 55 59 63 66 65 63 61 59 58 58 58 57 54 52 51 51 51 52 53 54 54 52 51 48 47 46 45 43 42 43 44 41 39 37 36 35 34 34 34 34 35 36 38 39 40 41 41 42 42 42 43 44 44 45 45 46 46 46 46 47
52 51 50 47 46 46 46 48 50 51 52 53 53 52 51 51 51 50 49 49 50 52 52 51 51 52 55 59 63 66 67 65 62 61 60 60 60 58 56 54 53 53 54 55 57 57 57 55 52 50 49 48 45 45 46 46 43 41 40 38 36 35 35 34 34 36 37 38 40 41 42 42 43 43 44 45 46 46 47 47 48 48 47 46 46
49 50 50 49 49 49 50 51 52 53 54 55 54 54 53 53 52 53 52 52 52 53 53 53 52 53 54 57 59 63 66 67 66 65 64 64 63 61 60 58 56 56 57 58 59 59 60 59 56 54 52 50 48 47 48 47 46 44 42 39 38 36 35 35 35 36 38 40 41 42 43 44 44 45 45 46 47 48 48 48 48 48 48 48 47
50 51 53 54 54 54 55 55 55 55 56 57 57 57 56 55 54 53 53 54 54 53 52 53 54 53 54 56 57 58 60 63 65 66 67 67 66 65 63 61 59 59 60 60 60 60 61 62 60 58 56 53 51 50 50 49 48 46 43 40 39 37 36 36 37 38 40 41 42 43 44 45 45 46 46 47 48 48 48 48 48 48 48 49 50
52 53 55 57 58 59 58 58 56 55 56 59 60 60 59 57 55 53 53 53 54 54 52 51 52 52 53 54 54 53 54 56 60 63 66 67 69 69 67 64 62 63 63 62 61 60 61 62 62 60 58 55 52 51 51 50 49 47 44 41 39 37 37 38 38 39 41 42 43 44 44 45 46 46 47 48 48 49 49 48 48 48 49 50 51
51 52 54 55 57 59 59 58 57 55 55 57 60 61 61 60 57 55 54 53 53 53 53 51 49 49 51 51 51 51 52 54 57 59 61 62 65 68 68 66 66 66 64 63 61 60 59 60 61 60 59 56 54 53 53 52 51 49 45 42 39 38 38 39 40 41 42 43 44 44 44 44 45 46 47 48 49 49 49 49 49 50 50 51 50
48 49 49 50 51 52 54 55 55 54 53 54 57 59 60 60 58 56 56 55 53 53 53 51 49 49 50 50 50 51 53 54 54 55 56 56 58 61 66 68 69 67 65 63 62 60 59 59 60 60 58 56 55 54 54 53 52 49 45 41 39 39 39 40 41 42 42 43 44 44 44 44 45 46 47 48 48 48 49 50 50 51 52 51 50
45 46 46 45 44 45 47 49 51 53 53 52 54 56 58 59 58 58 58 56 54 54 54 53 52 53 53 52 52 52 53 54 53 54 54 54 54 58 63 67 68 66 64 63 62 60 59 59 59 59 58 56 55 54 54 54 52 48 44 42 40 40 41 41 42 42 43 44 44 44 44 44 44 46 46 48 48 48 49 49 49 51 53 53 52
43 44 44 42 41 41 43 46 49 52 52 52 52 54 56 58 58 59 60 58 56 55 55 54 55 56 56 54 54 55 55 55 55 54 54 54 56 59 63 65 65 64 63 61 60 59 58 58 58 59 58 56 55 54 54 53 50 46 44 42 42 42 42 42 43 43 44 44 44 43 43 43 44 45 46 47 48 48 49 49 49 51 53 54 54
43 44 44 43 42 41 41 43 47 50 51 50 50 51 53 56 57 58 59 60 59 58 57 56 56 57 58 57 58 58 59 58 56 54 54 55 57 60 62 63 62 61 59 58 57 57 57 57 58 59 58 56 55 54 53 51 48 45 43 42 42 42 42 43 44 44 45 44 44 43 43 43 43 44 44 45 47 48 48 49 50 52 54 55 56
47 47 46 46 45 44 42 42 42 45 47 47 47 47 48 51 54 55 56 58 58 58 58 56 55 56 57 58 59 60 61 60 57 55 55 57 59 61 61 61 60 58 57 56 56 55 54 55 57 57 56 55 54 52 50 48 46 45 43 42 42 42 43 45 46 46 46 45 44 43 42 42 42 43 43 44 45 46 47 48 50 53 54 56 56
54 51 50 48 47 47 46 44 42 41 41 42 43 44 45 46 48 50 51 53 55 55 56 56 55 55 56 57 59 60 61 61 60 59 59 60 62 63 61 60 58 56 55 54 55 54 53 53 55 54 53 53 52 49 47 46 46 45 43 42 42 43 45 47 48 48 47 45 43 42 41 41 42 42 43 44 44 45 46 49 51 53 55 55 55
56 56 55 52 51 50 49 48 47 45 42 40 39 39 41 41 42 44 46 48 50 52 54 56 57 57 57 58 59 60 61 61 62 63 63 64 66 65 61 58 57 55 54 54 53 51 50 51 51 50 49 49 47 45 45 45 44 43 42 42 43 45 48 49 49 49 47 45 42 41 41 41 41 42 43 43 43 45 47 49 51 52 53 54 54
52 55 57 56 54 53 51 51 51 49 48 45 41 38 37 37 38 40 42 44 46 48 50 52 54 55 56 56 58 59 60 61 62 63 64 65 66 64 60 57 56 54 54 53 51 49 48 47 47 47 46 45 44 44 44 44 42 42 42 43 45 47 49 50 49 48 46 44 42 41 40 41 41 42 42 43 43 45 48 50 51 51 51 51 52
49 50 53 55 55 54 54 53 53 52 51 50 47 43 39 36 36 37 38 40 42 44 46 48 50 52 53 54 56 58 60 61 61 61 61 62 64 63 59 55 54 53 53 52 49 46 44 44 45 45 44 44 44 44 44 43 42 42 43 45 47 48 49 49 48 46 45 43 41 40 40 41 41 42 42 42 43 46 48 49 49 49 48 48 49
49 48 48 49 51 53 54 54 54 54 53 52 51 49 46 41 37 35 36 38 39 41 43 45 47 50 52 54 57 58 60 60 59 58 58 59 61 62 58 54 53 53 52 50 47 45 45 45 45 43 42 43 44 44 44 42 41 43 45 46 48 49 49 48 47 45 43 42 41 40 40 41 42 42 41 42 44 47 48 48 47 47 46 47 47
53 51 49 47 48 49 51 53 54 53 53 53 52 50 50 48 43 38 35 35 35 36 36 38 41 44 48 52 55 57 58 58 56 56 56 57 60 60 57 54 53 52 50 49 47 46 46 46 45 43 43 45 45 45 43 41 41 44 46 46 48 48 48 48 47 44 43 42 41 40 40 41 41 41 42 43 45 47 47 47 46 45 45 46 46
58 56 53 51 49 48 49 50 51 52 52 53 53 51 50 51 50 45 40 36 35 33 32 32 34 36 39 43 47 50 53 54 54 55 55 56 57 57 55 52 51 49 49 49 48 46 46 46 45 44 45 45 45 43 42 41 43 45 47 47 49 50 49 48 45 43 43 42 41 40 40 40 40 41 42 44 46 47 47 47 46 44 44 45 45
63 61 59 56 54 52 51 49 49 50 51 52 52 52 50 50 52 52 49 44 41 38 36 34 33 32 33 33 35 39 43 47 49 50 51 51 51 51 51 51 50 48 48 48 48 48 48 47 46 46 47 46 43 42 42 43 45 47 48 50 51 51 49 46 43 43 42 42 40 39 39 39 39 40 42 44 45 46 46 46 45 44 44 45 45
68 67 64 62 59 56 55 53 50 50 51 51 52 52 51 50 51 52 54 53 50 46 43 40 38 36 34 32 31 32 36 41 44 44 44 44 44 44 46 48 48 47 45 45 47 49 49 48 48 49 49 46 42 42 45 47 48 49 51 52 51 49 46 43 42 42 42 41 39 38 38 38 39 41 43 44 44 44 44 44 44 43 43 45 45
72 70 68 67 64 60 58 57 55 53 51 51 52 52 51 50 51 51 53 55 55 54 51 48 45 42 40 38 36 34 33 34 34 32 32 34 36 38 40 42 44 43 41 41 44 47 48 49 50 49 47 44 44 46 49 50 51 51 51 50 48 45 43 41 41 42 41 40 38 37 37 38 39 42 43 44 43 43 42 42 42 42 43 44 45
74 73 72 70 67 64 62 60 59 58 55 53 53 53 51 50 51 51 52 54 56 56 56 53 50 48 47 44 42 39 37 34 31 28 28 29 29 31 33 34 36 37 35 36 40 44 47 49 50 49 47 47 48 49 50 51 51 49 47 46 44 42 41 40 41 41 40 38 37 36 37 38 40 42 43 43 42 41 40 40 40 41 42 44 45
75 74 73 72 70 67 65 62 60 60 59 56 54 54 53 51 51 50 50 52 54 55 56 54 52 51 50 49 46 44 43 40 37 34 33 31 31 31 32 32 32 31 30 31 35 39 43 47 49 50 50 50 50 51 50 50 48 46 44 42 41 40 40 40 40 40 38 37 36 36 37 39 41 42 42 41 40 39 38 38 39 40 42 43 45
77 75 73 73 72 70 67 64 62 61 61 59 56 55 54 53 51 50 49 50 52 54 53 52 52 52 51 50 49 48 46 44 42 38 35 34 35 35 35 36 35 35 34 33 33 35 38 41 45 47 49 51 51 51 50 48 46 43 41 40 39 39 40 40 39 38 36 36 35 36 37 39 41 41 40 39 38 37 37 38 39 40 41 43 45
76 74 72 72 71 70 68 65 63 62 61 60 58 56 55 53 52 50 49 48 49 51 51 50 50 51 51 50 49 48 47 45 44 41 38 36 36 36 38 39 39 39 40 40 39 39 40 42 44 46 48 49 50 50 49 47 43 41 39 38 38 39 39 39 38 36 35 35 35 36 38 39 39 39 38 37 36 36 36 37 39 40 41 43 44
73 72 70 70 69 68 67 65 63 62 61 60 59 57 55 53 51 50 49 47 47 48 49 48 47 47 48 47 47 47 47 45 44 42 40 38 38 38 39 40 41 42 44 44 43 44 44 45 46 47 47 48 49 49 47 44 40 38 37 38 39 39 39 37 36 35 34 34 35 37 38 38 38 37 36 36 35 35 36 37 39 40 41 43 44
68 67 66 66 66 66 65 63 62 60 59 59 58 57 55 53 51 50 49 47 46 45 46 46 45 45 45 45 45 46 46 45 44 43 40 39 39 40 41 43 45 47 48 48 47 46 46 45 45 46 46 47 48 47 44 39 37 36 37 38 39 38 37 35 34 33 33 33 35 37 37 36 36 36 35 35 35 35 36 37 38 40 41 43 45
63 62 61 61 61 62 61 60 60 59 58 58 57 56 54 53 51 50 48 47 46 45 44 45 45 45 44 44 44 45 46 46 45 43 40 39 40 42 44 46 47 49 50 49 47 45 45 45 45 45 45 46 45 43 39 36 36 37 38 38 38 37 35 34 32 32 32 34 35 35 35 35 35 34 35 35 35 35 36 37 38 40 42 43 45
58 58 57 56 55 56 56 57 57 57 57 57 56 55 53 51 50 49 48 47 46 45 45 45 46 47 46 45 45 46 46 46 44 42 40 40 42 43 45 46 48 49 50 48 43 41 42 44 44 45 45 45 42 38 35 35 37 38 38 38 37 36 34 32 31 31 32 33 34 34 33 33 33 34 34 35 35 35 36 37 39 41 42 44 45
53 52 51 50 49 50 51 52 53 54 54 54 54 53 51 49 47 47 48 47 46 45 45 46 47 48 47 45 45 46 46 46 45 43 42 42 44 46 47 47 48 49 48 45 41 39 40 43 44 45 44 41 37 35 34 36 38 39 38 37 36 34 32 30 30 31 32 33 33 32 32 32 33 34 34 35 35 36 37 38 40 41 43 44 45
46 45 45 45 45 45 46 47 49 50 51 51 51 50 49 47 45 45 46 46 46 46 46 46 47 47 46 45 46 47 47 48 47 46 44 44 45 46 47 48 48 47 45 43 41 40 41 42 42 41 38 35 33 34 36 38 39 38 37 35 33 31 29 29 29 31 32 32 32 31 31 32 33 33 34 35 36 37 38 39 41 42 44 46 46
39 39 39 40 40 41 42 42 44 45 46 46 47 47 46 45 44 44 46 46 45 46 46 46 46 45 44 44 44 45 46 47 46 45 45 45 46 47 48 48 47 45 43 42 42 41 40 39 37 35 33 31 32 35 37 38 37 36 35 33 31 29 28 28 29 31 32 31 31 31 31 32 33 33 34 35 36 37 39 40 42 43 45 47 48
32 32 33 34 35 37 37 38 39 40 41 41 42 43 43 42 42 44 45 45 46 45 45 45 44 42 42 42 42 42 43 43 43 43 45 46 47 48 47 46 45 44 42 41 39 38 37 36 33 30 30 31 33 35 36 36 35 34 32 29 27 27 27 28 30 31 31 30 30 31 31 32 33 34 34 35 37 38 39 41 42 44 46 47 49
27 28 28 29 30 32 32 33 35 36 37 38 39 40 41 41 41 42 43 44 44 43 42 41 39 38 38 38 39 40 40 40 40 42 43 44 45 45 45 44 42 40 37 35 34 34 34 33 30 29 30 32 34 35 35 34 33 30 28 26 26 26 28 29 30 30 29 29 30 31 32 32 33 34 35 36 37 39 40 41 43 45 47 49 50
22 23 24 25 26 28 28 30 31 33 34 36 37 38 38 38 38 39 39 39 38 37 36 35 34 33 33 34 36 37 38 38 38 39 40 41 41 40 40 39 35 30 28 29 30 30 31 31 30 31 33 34 34 34 33 32 30 27 26 25 26 27 28 28 29 29 29 29 30 31 32 32 33 34 35 36 38 39 40 42 44 45 48 50 51
19 20 21 22 23 25 26 28 29 31 33 34 34 34 33 33 34 34 33 32 31 31 30 30 30 29 30 31 33 35 36 36 36 36 35 35 34 32 30 28 24 22 24 27 29 31 32 32 32 33 34 34 34 33 31 29 26 25 25 26 26 27 27 27 27 28 28 30 31 31 32 33 33 34 35 37 38 40 41 43 44 47 49 50 51
17 18 19 20 21 22 24 26 28 29 30 30 30 29 28 27 27 27 26 25 25 26 26 27 27 27 28 29 30 31 31 31 30 28 27 26 25 22 20 19 19 21 25 29 31 31 31 31 32 33 33 33 32 30 27 25 24 25 25 26 26 27 26 26 27 28 29 30 31 32 32 33 34 35 36 37 39 40 42 43 45 48 50 51 52
15 16 17 18 19 20 21 22 24 25 25 25 24 23 21 20 20 20 20 20 21 22 24 24 25 25 25 25 25 25 24 22 20 19 19 19 19 19 19 20 22 25 28 30 30 29 30 30 32 32 32 30 28 26 24 24 25 25 26 26 26 26 26 26 27 28 29 31 32 32 33 34 34 35 37 38 40 41 42 44 46 48 50 51 52
12 12 13 13 13 14 15 17 18 18 18 17 16 16 15 16 16 17 17 18 19 20 20 20 20 20 20 20 20 19 17 16 16 17 18 20 21 20 20 21 24 27 28 28 28 29 29 30 31 31 29 27 25 24 24 25 25 25 25 25 25 25 26 26 27 28 30 31 32 33 34 35 35 36 38 39 40 42 43 45 47 48 49 51 52
10 10 10 9 9 10 11 12 12 13 14 14 14 14 15 16 17 17 18 18 18 18 17 17 16 17 16 16 15 15 16 17 19 20 21 22 21 20 20 21 23 25 26 26 27 28 29 29 29 28 26 25 24 24 24 24 24 24 25 24 25 25 26 26 28 29 30 32 33 34 35 35 36 37 38 40 41 43 45 46 47 48 50 51 52
10 10 10 10 9 10 10 11 11 12 13 13 14 15 15 16 17 17 18 18 18 18 17 16 16 15 15 16 17 19 20 21 22 23 22 21 20 19 19 21 22 23 24 25 26 27 27 27 26 25 25 24 24 24 24 24 24 24 24 24 24 25 26 27 28 29 31 32 33 34 35 36 36 38 39 41 43 45 46 47 48 49 50 52 52
8 8 8 8 9 9 10 11 12 13 13 14 14 15 15 15 15 15 15 15 16 16 16 16 16 17 18 19 21 22 23 22 22 22 21 20 19 19 20 20 21 22 23 25 26 26 26 26 25 25 24 24 23 22 23 23 23 23 23 23 24 25 26 27 29 30 31 33 34 34 35 36 37 38 40 42 44 46 46 47 48 49 50 52 53
12 9 7 6 5 5 5 6 6 7 8 9 10 11 12 12 12 11 11 11 12 13 15 17 20 21 22 23 23 23 22 21 21 20 19 19 19 19 20 20 21 23 24 25 26 26 25 25 24 23 22 22 22 22 22 22 22 22 23 23 25 26 27 28 29 31 32 34 34 35 35 36 38 40 42 44 45 46 46 47 48 49 51 52 53
Wind_Direction
286 283 279 275 271 267 262 254 251 251 252 253 254 253 252 252 253 253 253 253 252 251 251 251 250 251 252 254 256 257 257 258 259 260 261 261 260 258 256 256 257 257 257 257 258 258 259 262 265 268 270 271 273 275 276 277 279 281 284 285 286 287 288 289 290 291 289 288 289 288 289 290 292 291 289 289 289 289 289 289 289 291 292 293 293
269 264 260 260 264 266 261 254 251 251 252 254 255 256 256 256 256 255 256 256 254 252 251 250 249 250 251 252 254 255 256 257 258 260 260 259 258 257 258 259 259 260 261 262 261 260 260 261 263 267 270 273 275 276 276 277 279 281 283 286 287 288 290 291 292 292 292 292 292 292 293 294 296 296 294 293 292 292 292 293 294 295 296 297 298
264 258 253 249 248 251 253 257 261 262 262 261 261 260 260 260 258 256 255 256 256 254 252 250 249 250 250 251 252 253 254 256 257 259 259 258 258 258 259 260 261 262 263 264 262 260 260 262 263 264 268 272 274 275 276 277 278 280 282 285 287 289 290 292 292 292 293 294 294 294 295 296 298 300 299 297 297 296 297 298 299 299 300 300 300
267 259 254 250 248 251 254 258 262 263 265 267 266 266 265 263 260 259 257 256 255 253 251 250 249 249 250 251 252 252 253 255 257 258 258 258 258 258 258 259 261 263 264 263 262 261 262 263 263 264 266 270 273 275 276 277 278 279 282 285 287 288 290 291 292 293 294 295 296 297 298 299 301 303 302 301 300 301 301 302 302 302 301 300 299
274 268 262 258 256 257 260 262 262 262 264 265 264 264 265 264 261 260 259 259 259 255 252 250 250 250 252 252 252 253 253 255 257 258 258 258 257 258 258 259 260 262 263 263 262 262 263 264 265 265 267 271 274 275 276 277 278 280 282 285 286 287 288 289 290 291 294 296 298 299 300 300 301 302 302 302 301 301 301 301 300 299 298 298 297
279 274 270 266 263 263 264 265 266 267 269 267 263 260 258 258 261 262 260 260 262 260 255 252 252 252 252 253 252 253 253 254 256 257 257 257 258 258 258 259 260 262 264 265 265 264 264 266 267 267 269 272 274 275 276 277 278 280 281 283 285 286 286 287 288 291 294 297 298 299 299 299 299 300 301 300 299 298 296 295 295 295 295 296 296
281 276 273 271 270 268 267 265 265 267 269 269 265 262 259 256 257 261 260 257 258 259 257 254 253 252 252 251 251 251 252 252 254 257 258 259 259 259 259 259 260 262 264 265 266 266 265 266 268 269 269 270 272 274 275 277 278 279 280 281 282 284 285 286 287 291 294 296 296 296 297 298 298 297 297 296 294 293 292 291 292 293 293 294 293
281 278 276 274 271 270 269 267 266 265 265 265 264 263 262 258 255 256 257 254 253 254 255 255 254 252 251 250 249 249 249 250 252 256 259 261 260 260 261 261 261 262 263 264 265 265 265 265 267 268 267 267 269 272 274 276 277 278 278 279 281 283 284 285 288 291 292 293 294 295 295 296 295 293 293 292 290 290 290 290 289 290 291 291 292
281 279 277 273 269 268 267 267 266 265 264 263 262 262 261 260 258 256 256 254 251 252 252 252 252 252 251 250 249 248 248 249 250 254 258 260 261 261 262 263 263 263 263 264 264 263 263 264 265 266 266 265 267 269 272 273 275 276 276 278 280 282 284 285 288 289 290 290 292 293 293 293 292 290 290 290 289 288 289 289 288 288 289 290 292
278 278 275 271 269 268 267 268 268 268 266 264 262 261 260 260 259 258 257 255 252 252 251 251 251 252 252 251 250 249 248 249 251 253 256 258 258 259 260 262 263 263 264 264 264 263 262 262 262 263 264 265 266 268 270 271 273 274 274 276 278 280 283 285 287 287 288 289 291 291 290 290 290 291 291 290 289 289 289 289 288 288 289 290 291
273 273 272 270 269 269 270 272 273 272 271 269 266 263 261 261 261 260 260 258 254 252 253 252 252 252 252 252 251 250 249 249 251 253 254 255 255 256 258 260 262 263 264 264 265 264 263 261 260 262 264 265 266 267 268 268 270 271 272 275 276 279 282 284 285 286 287 288 288 289 290 290 291 292 291 290 290 290 289 289 289 290 292 293 293
271 270 270 270 271 273 273 275 275 275 273 272 270 267 264 263 261 261 262 260 255 253 253 253 252 252 252 252 252 251 250 249 251 252 253 254 254 255 256 258 260 262 263 264 265 265 263 261 259 260 262 263 264 265 265 266 267 268 270 272 274 277 280 282 284 285 286 287 288 290 291 291 291 291 291 290 289 289 288 289 291 293 295 296 295
274 273 274 275 277 278 279 278 277 275 273 271 270 269 267 265 262 261 262 261 256 253 252 252 252 251 250 249 249 250 249 249 250 251 252 253 252 253 253 255 257 260 261 263 265 264 263 260 258 258 259 260 262 263 264 264 264 265 267 269 271 275 278 281 283 284 285 287 288 289 291 290 290 290 290 289 288 287 288 290 293 295 295 295 295
276 277 277 278 279 279 280 279 277 274 272 270 268 268 267 266 263 260 260 259 256 253 252 253 253 250 248 247 249 251 251 250 251 252 252 253 252 251 250 252 255 257 259 262 263 262 261 258 256 255 256 258 260 261 261 261 261 262 264 267 270 274 277 280 282 283 284 285 286 288 290 290 290 290 290 289 288 288 290 293 295 296 294 294 296
275 275 275 275 275 276 276 276 275 273 270 268 266 266 265 264 262 259 258 257 256 253 251 252 251 249 248 249 251 251 250 249 250 251 252 253 252 249 248 249 252 255 258 260 260 259 257 255 253 253 254 255 257 258 258 258 259 260 262 265 269 272 275 278 280 281 283 285 286 288 290 291 290 290 289 289 289 290 292 294 296 296 295 295 299
274 272 271 271 272 272 272 272 273 273 272 269 266 263 262 261 259 257 256 256 256 253 251 251 249 247 248 249 249 248 247 246 248 249 249 248 247 246 247 250 253 255 257 258 258 257 255 254 252 252 252 253 255 255 255 256 258 260 262 265 267 270 273 276 278 280 283 285 287 289 290 290 289 288 288 288 289 291 293 295 296 297 297 298 300
283 276 271 269 270 271 271 271 272 273 273 271 268 264 260 259 257 256 253 252 253 252 251 251 248 245 245 247 246 246 245 246 247 248 247 244 244 247 250 252 254 255 257 258 258 257 255 254 253 252 251 252 252 252 253 255 257 260 262 264 265 268 272 275 277 279 282 284 287 289 289 288 287 287 287 289 291 293 294 296 298 298 298 299 300
290 287 281 275 273 272 270 269 270 271 271 270 268 265 261 258 257 256 253 251 250 250 250 250 248 244 242 244 246 246 246 246 247 247 245 244 246 249 251 252 253 255 257 258 257 257 256 255 253 252 251 250 248 248 250 253 256 259 260 262 265 268 271 273 275 278 281 284 287 287 286 285 285 286 288 290 292 294 295 297 298 299 300 301 302
287 288 287 284 280 277 273 270 267 267 268 268 267 265 263 259 257 256 254 251 249 249 249 250 250 247 245 247 249 249 247 246 244 244 244 246 249 251 251 252 254 256 256 256 257 257 256 255 254 253 251 249 248 248 249 252 254 256 258 261 265 267 269 272 274 278 280 283 285 284 284 284 284 285 288 290 292 294 296 298 299 299 300 302 303
288 285 285 285 285 284 281 276 272 269 268 267 266 264 263 260 256 254 251 250 249 249 250 251 252 252 251 251 251 250 248 245 243 243 246 248 251 254 254 254 255 254 254 256 257 256 256 255 254 253 251 249 248 250 251 252 254 256 258 261 264 267 269 271 274 276 278 281 282 282 281 282 283 285 287 289 291 294 296 298 299 299 301 302 304
291 288 284 283 284 285 285 282 278 275 272 271 268 265 263 261 258 254 251 249 248 249 250 252 253 253 252 251 250 249 248 246 244 244 246 249 252 255 255 254 253 252 254 256 256 256 255 255 253 252 250 248 247 249 251 253 254 256 259 262 264 267 269 271 272 274 277 279 280 279 279 280 281 284 286 287 290 293 295 297 298 300 302 304 305
292 290 287 284 283 284 284 284 282 279 276 275 273 268 264 261 259 257 253 250 248 248 249 250 251 251 250 249 248 247 247 246 244 245 247 249 253 256 254 250 249 250 252 253 254 254 254 252 250 248 246 245 245 246 248 251 252 254 258 262 264 266 268 269 271 274 276 277 277 276 277 278 280 283 284 286 290 293 294 296 298 301 304 305 306
293 290 287 286 284 283 282 282 282 281 279 277 275 272 268 262 258 256 254 251 249 248 247 248 249 249 248 247 246 246 246 245 244 245 246 249 252 254 252 247 245 248 250 251 251 251 250 248 245 242 240 241 241 243 245 248 251 254 257 261 264 265 267 268 270 273 275 275 274 274 276 278 280 282 284 287 290 292 294 296 299 302 304 305 307
294 291 288 285 283 282 280 280 280 280 279 277 276 274 271 267 261 255 252 251 249 247 246 246 247 247 246 245 244 245 245 244 243 243 244 246 249 251 248 244 244 246 248 247 246 245 244 242 239 237 237 239 240 242 244 247 250 253 255 259 263 264 266 267 269 272 274 273 272 273 275 277 279 281 283 287 290 292 294 297 300 303 304 306 308
293 292 290 287 283 280 278 276 277 277 277 276 275 274 272 269 265 260 257 254 251 249 247 245 245 245 245 244 243 242 242 242 242 242 242 243 246 246 244 243 244 245 245 245 243 240 239 238 234 232 234 237 238 241 243 246 250 253 255 257 261 263 264 266 269 272 273 271 270 272 274 276 278 281 284 287 290 292 294 297 301 303 304 306 308
292 291 290 289 286 283 279 275 273 273 274 273 273 272 271 269 267 264 263 261 258 256 255 252 248 244 243 244 244 242 241 240 239 240 240 241 243 244 242 243 245 246 244 243 240 237 237 237 235 233 235 237 239 241 244 246 249 252 254 256 258 260 262 265 269 272 271 269 269 271 273 275 278 281 285 288 290 292 295 298 300 302 304 305 307
290 289 289 288 287 285 282 277 273 270 270 270 270 269 268 268 267 265 264 264 263 261 260 260 257 251 247 247 247 246 245 244 243 242 241 241 242 243 243 244 246 246 245 243 241 238 237 236 235 236 237 238 239 241 243 245 248 250 252 254 255 258 261 265 269 271 269 267 267 270 272 275 279 282 285 288 290 293 296 298 300 302 303 304 307
288 288 288 287 286 284 283 280 276 271 268 267 266 266 266 265 265 264 264 264 264 263 261 261 260 259 256 254 251 247 244 244 246 248 248 248 247 246 246 248 249 249 248 246 245 243 240 237 236 237 237 238 240 242 243 245 247 249 250 252 254 258 262 266 269 269 266 265 267 269 272 276 279 282 285 288 291 294 297 299 300 302 303 305 307
287 287 286 286 285 283 282 280 278 274 270 266 264 263 263 263 262 262 262 262 262 262 262 261 261 261 261 259 257 254 248 244 244 246 248 248 248 248 248 249 250 249 248 247 246 246 244 243 242 240 239 239 241 242 243 244 246 247 249 252 255 259 263 267 268 267 264 264 266 269 272 276 279 282 285 288 291 294 297 299 301 303 304 306 308
286 285 285 284 283 283 281 278 277 275 273 269 265 262 261 260 260 259 259 259 260 260 260 260 260 260 261 260 259 259 257 253 247 243 240 239 240 243 246 247 247 246 244 242 242 244 245 245 243 240 238 239 241 242 242 244 245 247 250 253 257 260 263 266 267 264 262 263 266 269 272 275 278 281 284 288 291 295 298 300 301 304 306 307 308
285 283 283 282 282 281 279 277 275 274 272 271 268 264 260 258 258 257 256 256 256 257 257 258 258 258 259 259 259 258 258 256 253 250 246 244 242 242 243 245 246 246 244 240 240 241 243 244 243 240 238 240 241 242 242 244 246 248 251 254 256 260 263 265 264 261 261 263 266 268 272 275 278 281 284 288 292 295 298 301 303 305 306 306 307
284 283 281 280 280 279 278 276 273 272 271 270 268 265 262 259 257 255 254 254 254 254 255 256 256 256 256 257 257 257 257 258 257 255 252 250 248 247 247 248 248 249 248 245 243 242 243 244 244 243 242 242 242 243 244 245 246 248 251 253 256 261 263 263 260 259 261 263 266 269 273 275 278 282 286 290 293 297 300 302 304 304 305 306 308
283 281 280 278 277 276 275 274 272 270 269 268 267 265 263 261 258 256 254 252 252 252 252 253 254 254 254 254 254 254 254 254 255 254 252 251 250 249 250 251 251 251 251 250 248 248 247 246 244 243 242 242 242 243 244 244 245 247 249 253 258 261 261 259 257 258 260 263 266 270 273 276 280 284 288 292 295 299 302 303 303 304 305 307 308
281 279 278 276 275 274 273 272 271 269 268 267 266 265 263 261 261 259 257 253 251 250 251 253 254 254 254 253 252 251 250 249 250 250 249 248 248 249 250 251 252 253 254 253 251 250 249 247 245 244 243 243 242 242 242 243 244 246 250 255 259 260 257 255 255 257 260 263 267 270 273 277 282 286 290 293 297 299 302 303 303 305 307 308 309
281 278 276 274 273 272 271 270 269 267 266 264 263 263 262 260 260 260 259 256 252 250 250 252 254 254 253 252 251 250 249 247 246 246 246 245 246 247 248 248 249 252 254 255 253 251 248 247 246 246 246 245 243 242 241 241 243 246 251 256 257 256 253 253 255 258 261 264 268 271 275 280 284 287 291 295 297 300 302 303 305 306 308 309 310
280 278 274 271 270 269 268 267 266 265 263 261 260 260 259 258 258 259 259 257 254 252 251 251 252 252 251 250 249 249 248 246 244 243 243 244 246 247 248 249 250 252 254 256 256 254 252 250 249 247 246 243 241 240 238 239 242 246 250 254 254 251 250 252 255 258 261 265 269 273 277 282 286 289 293 295 298 301 303 305 306 307 308 310 310
279 276 273 269 266 264 264 263 262 261 260 259 258 257 256 255 256 257 257 257 257 255 253 252 252 251 249 247 247 247 248 248 245 243 241 242 244 246 246 248 249 251 253 255 256 256 255 254 250 246 242 238 236 235 235 237 241 245 249 251 249 247 249 251 255 258 262 266 270 274 279 283 287 290 293 296 299 302 303 305 306 307 309 310 310
277 274 271 266 263 261 260 259 258 257 256 256 255 255 254 253 253 255 257 258 259 258 256 255 254 251 250 248 247 248 249 248 246 243 241 239 241 244 244 245 247 250 253 256 257 255 253 250 246 241 237 233 230 230 233 237 241 245 246 246 244 245 248 251 254 258 262 266 271 275 280 284 288 291 294 297 300 302 304 306 307 308 308 309 310
275 271 267 263 261 259 257 256 255 254 253 253 252 252 252 252 253 254 257 260 261 259 258 258 256 253 251 249 247 247 249 249 247 245 242 241 243 245 246 247 248 251 254 256 256 252 247 243 239 235 232 229 227 230 235 239 241 243 243 242 242 244 247 251 255 259 262 267 272 276 281 285 288 292 295 298 301 302 304 306 307 308 309 310 311
272 267 263 261 260 259 257 256 254 252 251 250 250 250 250 250 252 255 258 261 263 261 260 260 258 255 252 249 247 247 250 251 251 249 246 244 244 246 247 249 250 251 254 256 254 248 240 234 230 226 224 226 231 235 238 239 240 240 240 240 242 245 247 251 256 259 264 269 274 278 283 286 290 293 296 298 301 303 304 306 307 309 310 311 312
269 264 261 260 260 259 257 255 253 252 251 250 249 248 248 249 252 255 259 261 263 263 261 261 259 257 254 251 248 247 249 251 252 251 248 246 245 246 248 249 250 252 254 254 250 242 233 225 219 218 222 229 233 235 236 237 238 238 238 240 243 246 249 253 257 261 266 272 276 280 284 287 290 293 296 299 301 303 305 306 308 309 310 311 312
268 264 262 261 260 259 257 255 253 252 250 249 247 246 248 250 253 257 260 263 264 263 262 260 258 255 253 251 249 247 248 250 250 249 249 248 247 246 247 249 251 253 254 251 244 236 227 218 213 214 222 230 233 235 236 237 236 237 238 241 244 247 251 255 259 264 269 274 278 282 285 288 291 295 297 299 302 304 306 307 308 309 310 311 312
270 268 265 262 260 259 257 256 254 252 250 249 248 248 250 253 256 259 262 263 263 262 260 257 254 253 253 252 249 247 247 248 248 249 249 248 246 245 245 247 249 249 247 241 231 221 214 211 212 217 224 230 232 233 233 233 233 235 238 241 245 249 253 257 263 267 272 276 280 283 287 290 293 296 298 301 303 305 306 308 308 309 310 311 312
277 273 270 267 264 261 260 258 256 253 252 251 251 252 254 257 259 261 262 262 261 259 258 255 252 250 251 250 248 248 248 249 248 248 246 245 243 241 240 239 235 229 225 221 214 207 205 209 215 221 226 228 228 228 228 229 231 235 238 242 246 251 255 261 266 271 275 279 282 285 288 291 294 297 299 302 304 305 307 309 310 310 311 311 313
282 277 273 270 266 263 261 259 257 255 255 254 255 257 260 261 261 260 259 258 257 257 255 253 250 248 247 247 248 249 250 249 247 244 240 236 231 223 216 210 205 204 207 206 204 203 206 212 219 223 224 225 225 225 226 229 232 235 239 244 248 253 259 265 269 274 278 281 284 287 290 293 296 299 301 303 305 307 309 310 310 310 311 313 315
285 280 276 273 270 267 264 261 258 258 257 257 258 259 258 257 257 257 257 256 255 254 253 251 249 247 246 246 247 247 246 242 235 228 220 210 200 190 185 186 189 193 197 199 202 207 212 216 219 220 220 219 220 221 224 228 232 236 241 246 251 256 262 268 272 276 280 283 286 289 292 294 298 301 303 305 307 308 310 310 310 312 313 315 316
292 286 280 275 271 268 264 260 256 254 253 253 253 252 251 251 252 253 253 252 252 251 251 250 247 245 244 243 240 235 226 213 202 193 186 180 175 174 177 182 187 191 195 200 206 211 213 214 215 215 215 215 217 220 224 229 234 239 244 249 255 261 266 271 275 280 283 285 288 291 294 297 301 303 304 307 308 309 310 310 311 313 315 315 316
295 288 280 274 268 262 257 252 248 245 244 244 243 244 245 247 247 247 247 247 246 245 243 240 237 234 230 224 216 203 189 179 176 173 169 167 168 172 178 184 190 196 201 205 209 211 211 211 211 211 212 215 218 222 227 232 236 242 247 252 259 264 269 274 278 282 285 287 290 293 297 300 303 305 307 309 309 309 310 311 313 314 315 315 316
304 295 287 280 273 266 260 255 250 248 246 246 247 249 250 251 250 249 247 244 240 236 230 224 218 212 203 192 182 173 167 165 165 164 164 165 169 176 184 190 195 199 202 205 206 207 206 206 207 209 212 216 220 225 230 235 240 245 251 256 262 268 272 277 280 283 286 289 292 296 299 302 305 307 308 309 309 310 311 312 313 314 314 314 315
338 324 310 298 286 276 271 266 263 263 262 261 260 261 262 261 258 253 246 240 235 229 218 205 192 181 172 166 163 160 157 156 158 160 163 167 173 181 187 191 194 197 198 199 200 201 202 204 207 210 214 219 224 229 234 239 244 249 255 261 267 271 275 279 283 286 289 291 294 298 301 304 307 308 308 308 308 309 311 312 313 313 313 313 314
30 24 16 5 347 322 300 288 281 277 275 273 270 268 266 264 258 248 235 225 217 207 195 180 168 159 155 153 153 151 150 151 155 160 164 170 176 181 184 186 189 192 194 195 197 199 201 205 209 213 218 223 228 233 238 243 249 255 261 266 271 275 279 283 286 289 291 294 297 301 304 306 307 307 307 308 309 310 311 312 312 312 313 313 313
Height
3008 3007 3007 3007 3007 3008 3008 3008 3007 3008 3008 3009 3010 3012 3012 3012 3013 3014 3014 3014 3014 3015 3015 3015 3016 3016 3016 3017 3017 3018 3019 3020 3021 3022 3022 3023 3024 3025 3025 3025 3025 3026 3026 3027 3027 3028 3028 3028 3028 3028 3027 3027 3027 3026 3026 3026 3025 3025 3026 3026 3026 3026 3026 3027 3029 3030 3031 3029 3028 3028 3029 3030 3030 3029 3028 3028 3028 3027 3026 3025 3025 3025 3024 3023 3022
3002 3002 3002 3001 3002 3003 3003 3003 3003 3003 3003 3004 3005 3007 3008 3009 3009 3009 3009 3009 3009 3009 3009 3010 3010 3011 3011 3011 3012 3012 3013 3014 3015 3016 3017 3018 3019 3019 3020 3020 3020 3021 3021 3022 3023 3023 3023 3023 3024 3024 3024 3023 3023 3022 3022 3022 3022 3021 3021 3021 3021 3021 3021 3021 3022 3024 3025 3024 3022 3021 3021 3022 3023 3023 3022 3021 3021 3020 3020 3019 3018 3018 3016 3015 3014
2996 2996 2997 2996 2996 2996 2995 2996 2997 2998 2999 2999 3000 3001 3002 3003 3003 3004 3004 3004 3004 3004 3004 3005 3005 3005 3005 3005 3006 3006 3007 3008 3009 3010 3011 3012 3013 3014 3014 3015 3015 3016 3016 3017 3017 3017 3018 3018 3019 3019 3019 3019 3019 3018 3018 3017 3017 3017 3016 3016 3016 3015 3015 3015 3016 3016 3017 3017 3016 3014 3013 3014 3015 3015 3015 3014 3013 3012 3011 3010 3010 3009 3008 3007 3007
2990 2991 2992 2992 2991 2990 2989 2990 2990 2990 2991 2993 2994 2996 2997 2997 2997 2997 2998 2998 2998 2999 2999 2999 2999 2999 2998 2999 3000 3000 3001 3002 3002 3003 3004 3005 3007 3008 3009 3009 3010 3010 3011 3011 3011 3012 3012 3013 3013 3013 3013 3013 3013 3013 3013 3012 3012 3011 3011 3011 3011 3010 3010 3010 3010 3010 3010 3010 3010 3008 3006 3006 3006 3006 3006 3006 3005 3003 3002 3001 3001 3001 3001 3001 3001
2983 2983 2984 2985 2986 2985 2985 2984 2984 2983 2984 2985 2986 2987 2989 2990 2990 2990 2991 2991 2992 2992 2993 2992 2992 2992 2992 2993 2994 2995 2995 2995 2996 2996 2998 2999 3000 3001 3003 3004 3004 3005 3006 3006 3006 3006 3006 3007 3007 3007 3007 3008 3008 3008 3007 3007 3007 3006 3006 3006 3006 3005 3005 3005 3004 3004 3004 3004 3004 3002 3001 2999 2998 2998 2998 2998 2997 2996 2996 2996 2996 2996 2997 2996 2996
2975 2974 2975 2976 2977 2978 2978 2978 2978 2978 2978 2978 2978 2978 2979 2980 2981 2982 2982 2983 2983 2984 2985 2985 2985 2985 2986 2987 2988 2988 2989 2989 2990 2990 2991 2992 2993 2995 2996 2998 2998 2999 3000 3000 3000 3000 3000 3001 3001 3001 3001 3002 3002 3002 3002 3002 3002 3002 3001 3001 3001 3001 3000 3000 3000 2999 2998 2998 2997 2997 2996 2994 2993 2992 2992 2991 2991 2991 2991 2992 2992 2992 2992 2991 2990
2968 2967 2967 2967 2968 2968 2968 2969 2969 2970 2970 2970 2970 2969 2969 2969 2970 2972 2973 2973 2974 2975 2975 2976 2978 2979 2980 2981 2981 2982 2983 2983 2984 2984 2984 2985 2986 2988 2989 2991 2992 2993 2993 2994 2994 2994 2994 2994 2995 2995 2995 2995 2996 2996 2997 2997 2997 2997 2996 2996 2996 2996 2996 2995 2995 2994 2993 2993 2992 2991 2990 2989 2988 2986 2986 2986 2986 2986 2986 2986 2986 2986 2985 2985 2984
2960 2960 2960 2960 2960 2959 2959 2959 2960 2960 2961 2961 2961 2961 2961 2960 2961 2962 2962 2963 2964 2965 2966 2968 2969 2971 2972 2973 2974 2975 2976 2977 2977 2977 2978 2978 2979 2980 2982 2984 2985 2985 2986 2987 2988 2988 2988 2988 2989 2989 2989 2989 2989 2990 2991 2991 2991 2991 2991 2991 2990 2991 2990 2990 2990 2989 2989 2988 2988 2986 2985 2984 2983 2982 2981 2981 2981 2980 2979 2979 2979 2979 2979 2978 2977
2953 2953 2953 2953 2952 2952 2951 2952 2952 2952 2952 2952 2952 2952 2953 2953 2953 2953 2953 2954 2955 2956 2956 2957 2959 2961 2963 2965 2966 2967 2968 2969 2971 2971 2972 2972 2973 2973 2974 2975 2976 2978 2979 2980 2981 2982 2982 2982 2983 2983 2983 2983 2983 2984 2984 2985 2986 2985 2985 2985 2985 2985 2985 2985 2984 2984 2984 2983 2982 2981 2980 2979 2978 2977 2976 2976 2975 2974 2973 2973 2973 2972 2972 2972 2971
2946 2946 2946 2946 2945 2945 2945 2945 2944 2944 2943 2943 2944 2944 2944 2944 2945 2945 2945 2945 2946 2946 2947 2947 2949 2951 2953 2955 2957 2959 2961 2962 2964 2965 2966 2966 2967 2967 2967 2967 2968 2969 2971 2972 2973 2975 2975 2976 2976 2977 2977 2977 2977 2978 2978 2979 2980 2979 2979 2979 2979 2980 2979 2979 2979 2979 2978 2978 2977 2976 2975 2974 2973 2972 2971 2970 2969 2968 2968 2967 2967 2966 2966 2965 2965
2941 2940 2939 2938 2938 2938 2937 2937 2936 2936 2935 2935 2935 2935 2935 2935 2936 2936 2937 2937 2937 2938 2939 2939 2940 2942 2944 2946 2948 2950 2953 2955 2957 2959 2959 2960 2960 2960 2960 2960 2960 2961 2962 2964 2966 2967 2968 2969 2969 2970 2970 2971 2971 2971 2972 2972 2973 2973 2973 2974 2974 2974 2974 2974 2974 2973 2973 2972 2972 2971 2970 2969 2968 2967 2966 2965 2964 2963 2962 2962 2961 2960 2959 2958 2957
2934 2933 2932 2931 2930 2929 2929 2929 2928 2927 2926 2926 2926 2926 2926 2926 2927 2927 2928 2928 2929 2930 2930 2931 2932 2933 2935 2937 2940 2942 2944 2947 2949 2951 2952 2952 2953 2953 2953 2953 2953 2954 2955 2957 2958 2960 2960 2961 2962 2963 2963 2964 2964 2964 2965 2966 2967 2967 2968 2968 2968 2968 2968 2968 2968 2967 2967 2967 2966 2966 2965 2964 2963 2962 2961 2960 2959 2958 2957 2956 2955 2954 2953 2951 2949
2926 2925 2925 2923 2922 2921 2920 2920 2919 2918 2917 2917 2916 2916 2917 2918 2918 2919 2919 2920 2920 2921 2922 2922 2923 2925 2927 2929 2931 2934 2936 2939 2941 2943 2944 2944 2945 2945 2945 2945 2946 2946 2948 2949 2951 2951 2952 2953 2954 2955 2956 2956 2957 2958 2959 2960 2960 2961 2961 2962 2962 2962 2963 2963 2962 2962 2962 2961 2961 2960 2960 2959 2958 2957 2955 2954 2953 2953 2952 2951 2950 2949 2948 2945 2943
2918 2917 2917 2916 2914 2913 2912 2912 2911 2910 2909 2908 2908 2907 2908 2909 2910 2910 2911 2912 2912 2913 2914 2914 2915 2917 2919 2921 2923 2926 2929 2931 2933 2933 2934 2935 2935 2936 2937 2937 2938 2939 2940 2942 2943 2943 2944 2945 2946 2947 2948 2949 2950 2951 2952 2952 2953 2954 2955 2955 2956 2956 2957 2957 2957 2957 2956 2956 2955 2955 2955 2954 2952 2951 2949 2948 2947 2947 2946 2944 2944 2943 2941 2939 2939
2911 2910 2910 2909 2908 2907 2906 2905 2903 2902 2901 2900 2899 2899 2899 2899 2901 2901 2902 2903 2904 2905 2906 2907 2908 2909 2911 2913 2915 2918 2921 2922 2923 2924 2925 2925 2926 2927 2927 2928 2929 2931 2933 2934 2934 2935 2936 2937 2938 2939 2941 2942 2943 2944 2944 2945 2945 2947 2948 2949 2950 2950 2951 2951 2951 2951 2950 2950 2949 2949 2948 2948 2946 2944 2943 2942 2942 2942 2941 2939 2938 2936 2934 2933 2934
2905 2904 2903 2902 2901 2900 2899 2898 2896 2894 2893 2892 2891 2890 2890 2890 2891 2892 2893 2894 2896 2897 2897 2898 2900 2901 2903 2905 2907 2909 2912 2913 2914 2915 2915 2916 2916 2917 2918 2919 2921 2923 2925 2925 2926 2927 2927 2928 2930 2931 2933 2934 2935 2936 2936 2937 2938 2941 2942 2943 2943 2944 2945 2946 2945 2945 2944 2943 2943 2943 2942 2941 2940 2939 2937 2936 2936 2936 2935 2935 2933 2930 2928 2927 2928
2899 2897 2897 2896 2895 2894 2892 2891 2890 2888 2886 2885 2883 2882 2882 2882 2882 2883 2883 2885 2886 2888 2889 2889 2890 2892 2894 2896 2898 2900 2902 2904 2905 2905 2906 2906 2908 2909 2910 2912 2914 2915 2916 2917 2918 2919 2920 2920 2922 2923 2924 2926 2927 2927 2928 2930 2932 2934 2936 2936 2937 2938 2939 2939 2939 2939 2938 2938 2937 2937 2937 2936 2935 2933 2932 2931 2930 2930 2929 2929 2928 2925 2922 2921 2921
2893 2891 2890 2890 2889 2888 2886 2884 2883 2882 2880 2878 2876 2875 2874 2873 2874 2874 2874 2875 2876 2878 2879 2880 2881 2882 2884 2886 2888 2890 2892 2894 2895 2896 2897 2898 2900 2902 2903 2904 2906 2907 2908 2909 2910 2911 2912 2913 2913 2914 2916 2917 2918 2919 2921 2923 2926 2928 2929 2929 2931 2932 2933 2933 2933 2932 2932 2932 2932 2931 2931 2930 2929 2928 2927 2926 2926 2925 2924 2923 2922 2919 2916 2915 2914
2886 2885 2884 2883 2882 2881 2880 2878 2876 2875 2873 2872 2869 2867 2866 2865 2865 2865 2865 2866 2867 2868 2869 2870 2872 2874 2875 2877 2879 2881 2882 2884 2886 2887 2888 2889 2891 2893 2895 2896 2897 2898 2900 2901 2902 2903 2904 2905 2905 2907 2908 2909 2910 2912 2914 2917 2919 2920 2922 2923 2924 2926 2926 2926 2926 2926 2927 2927 2926 2926 2925 2925 2924 2923 2923 2922 2921 2920 2919 2917 2916 2913 2911 2910 2907
2878 2878 2877 2876 2875 2874 2873 2872 2870 2869 2867 2865 2863 2861 2859 2857 2856 2856 2856 2857 2858 2859 2860 2862 2864 2866 2868 2869 2871 2872 2874 2875 2876 2878 2879 2880 2882 2884 2886 2887 2888 2890 2891 2892 2894 2895 2896 2897 2898 2899 2901 2902 2903 2905 2908 2910 2912 2913 2915 2916 2918 2919 2920 2920 2920 2921 2921 2921 2920 2920 2920 2920 2919 2919 2919 2918 2917 2915 2914 2912 2911 2909 2906 2904 2901
2869 2868 2869 2869 2868 2867 2866 2865 2864 2863 2861 2859 2858 2855 2853 2852 2850 2849 2849 2849 2850 2851 2852 2854 2856 2858 2859 2861 2862 2863 2865 2867 2867 2868 2869 2871 2873 2875 2877 2879 2880 2881 2883 2885 2886 2888 2889 2890 2891 2893 2894 2896 2897 2899 2901 2903 2905 2906 2908 2910 2912 2913 2914 2914 2915 2915 2915 2915 2915 2915 2915 2914 2914 2915 2914 2914 2913 2911 2909 2907 2905 2903 2900 2897 2894
2860 2859 2859 2860 2860 2860 2859 2858 2857 2856 2855 2853 2852 2850 2848 2846 2845 2843 2842 2842 2842 2843 2845 2846 2848 2849 2851 2852 2853 2855 2857 2858 2858 2859 2860 2862 2863 2866 2869 2870 2871 2873 2874 2876 2878 2880 2882 2884 2886 2887 2888 2889 2890 2892 2894 2896 2897 2899 2902 2904 2905 2907 2907 2908 2908 2908 2909 2909 2909 2909 2909 2909 2909 2909 2909 2909 2907 2906 2904 2902 2899 2897 2894 2891 2887
2852 2851 2850 2850 2851 2851 2850 2849 2849 2848 2848 2847 2845 2845 2844 2842 2839 2838 2836 2835 2835 2836 2837 2838 2840 2841 2843 2844 2846 2847 2849 2849 2849 2851 2852 2854 2855 2858 2861 2862 2863 2865 2867 2868 2870 2873 2875 2877 2879 2880 2880 2881 2882 2885 2887 2888 2890 2893 2896 2897 2898 2900 2901 2902 2902 2901 2902 2902 2903 2903 2903 2903 2904 2904 2904 2903 2902 2901 2899 2896 2893 2890 2888 2885 2881
2845 2843 2842 2841 2841 2841 2841 2841 2840 2840 2839 2838 2838 2838 2838 2836 2834 2831 2830 2829 2828 2828 2829 2830 2831 2833 2835 2836 2838 2839 2840 2841 2841 2842 2844 2845 2846 2849 2852 2854 2854 2856 2858 2860 2862 2865 2867 2869 2871 2872 2872 2873 2876 2878 2880 2881 2883 2887 2889 2890 2891 2893 2894 2894 2894 2895 2896 2896 2897 2897 2897 2898 2898 2898 2898 2897 2896 2895 2893 2890 2887 2884 2881 2879 2876
2836 2835 2834 2833 2831 2831 2830 2831 2831 2830 2830 2829 2829 2829 2829 2829 2828 2826 2824 2823 2822 2822 2822 2823 2824 2825 2827 2829 2830 2831 2832 2833 2834 2835 2836 2837 2838 2840 2844 2845 2845 2847 2850 2852 2854 2857 2859 2861 2862 2863 2864 2866 2868 2870 2872 2874 2877 2880 2882 2884 2885 2886 2886 2887 2887 2888 2889 2890 2891 2892 2892 2892 2892 2892 2891 2891 2890 2888 2886 2883 2881 2878 2875 2873 2871
2826 2826 2825 2824 2823 2822 2820 2820 2820 2820 2820 2820 2820 2820 2820 2820 2821 2821 2819 2818 2817 2817 2817 2818 2818 2819 2821 2822 2824 2824 2825 2826 2827 2828 2829 2829 2830 2832 2836 2838 2839 2841 2844 2845 2848 2850 2852 2853 2855 2856 2857 2858 2860 2863 2866 2868 2871 2873 2875 2877 2878 2879 2879 2880 2881 2882 2883 2884 2885 2886 2886 2886 2886 2885 2884 2884 2883 2880 2879 2877 2874 2872 2869 2867 2865
2817 2815 2815 2814 2814 2813 2811 2810 2810 2810 2810 2810 2810 2810 2811 2811 2811 2813 2813 2814 2813 2813 2813 2813 2813 2814 2815 2816 2817 2818 2819 2821 2822 2822 2822 2823 2823 2825 2828 2831 2833 2835 2837 2839 2842 2843 2844 2846 2848 2849 2850 2852 2854 2857 2859 2861 2863 2866 2868 2869 2870 2871 2872 2873 2874 2875 2876 2878 2879 2880 2880 2880 2880 2879 2878 2877 2875 2873 2871 2869 2867 2865 2863 2860 2858
2808 2806 2805 2803 2803 2803 2802 2801 2800 2799 2799 2800 2800 2801 2801 2801 2801 2803 2805 2806 2807 2807 2807 2808 2809 2809 2810 2810 2811 2812 2813 2815 2817 2818 2818 2819 2819 2820 2822 2824 2827 2830 2832 2834 2836 2838 2839 2840 2840 2841 2843 2846 2849 2851 2853 2854 2857 2859 2860 2862 2863 2864 2865 2867 2868 2869 2870 2872 2873 2874 2874 2874 2874 2873 2872 2871 2869 2866 2864 2862 2860 2858 2856 2853 2850
2797 2796 2795 2793 2792 2792 2791 2790 2790 2790 2789 2790 2790 2791 2792 2791 2791 2793 2795 2796 2798 2799 2799 2801 2802 2804 2804 2805 2806 2807 2808 2809 2811 2812 2812 2813 2813 2814 2815 2817 2821 2824 2826 2828 2830 2831 2832 2833 2833 2835 2837 2840 2843 2844 2845 2847 2850 2852 2853 2855 2856 2858 2859 2861 2862 2863 2864 2866 2867 2868 2868 2868 2868 2867 2866 2864 2862 2860 2857 2855 2853 2851 2849 2846 2842
2786 2784 2783 2782 2781 2781 2780 2779 2780 2779 2779 2780 2780 2780 2781 2782 2781 2782 2784 2786 2787 2789 2790 2792 2795 2796 2797 2799 2801 2803 2804 2805 2805 2804 2804 2805 2805 2806 2809 2811 2813 2816 2818 2820 2821 2823 2824 2825 2827 2829 2831 2834 2836 2837 2839 2841 2843 2846 2848 2849 2851 2852 2854 2855 2856 2857 2858 2860 2861 2861 2862 2862 2862 2861 2860 2858 2856 2854 2851 2848 2846 2844 2841 2838 2835
2772 2772 2771 2770 2769 2769 2768 2768 2769 2768 2769 2770 2769 2769 2771 2772 2772 2773 2774 2775 2777 2779 2781 2783 2785 2787 2790 2792 2794 2796 2797 2799 2799 2798 2798 2798 2799 2800 2802 2804 2807 2809 2811 2813 2814 2815 2817 2819 2820 2822 2825 2827 2829 2831 2833 2836 2838 2841 2842 2844 2846 2848 2849 2850 2851 2852 2853 2854 2855 2855 2856 2856 2856 2855 2854 2852 2850 2848 2845 2842 2839 2837 2834 2831 2828
2757 2758 2759 2757 2756 2756 2756 2756 2757 2757 2758 2759 2759 2759 2760 2761 2762 2764 2765 2765 2766 2769 2772 2774 2776 2778 2781 2783 2785 2788 2790 2791 2793 2793 2793 2793 2794 2795 2796 2798 2800 2803 2804 2807 2808 2810 2811 2812 2814 2816 2818 2820 2822 2825 2827 2830 2833 2835 2837 2839 2841 2843 2844 2845 2846 2847 2848 2849 2850 2850 2850 2850 2850 2849 2847 2845 2843 2841 2838 2835 2832 2830 2828 2826 2822
2743 2744 2744 2743 2742 2742 2743 2744 2745 2745 2746 2748 2749 2749 2750 2751 2752 2754 2755 2755 2756 2759 2762 2765 2767 2768 2771 2774 2776 2779 2781 2782 2784 2786 2788 2788 2789 2790 2790 2792 2794 2796 2797 2800 2802 2804 2805 2806 2807 2810 2812 2814 2816 2819 2822 2824 2827 2830 2833 2835 2836 2837 2838 2840 2841 2843 2844 2844 2845 2845 2845 2845 2844 2843 2841 2839 2837 2835 2832 2829 2826 2824 2821 2819 2816
2729 2729 2730 2729 2728 2728 2730 2731 2732 2733 2735 2736 2737 2739 2740 2741 2743 2744 2745 2746 2748 2750 2753 2756 2759 2760 2762 2764 2767 2770 2772 2774 2775 2778 2780 2782 2784 2785 2785 2786 2787 2789 2790 2792 2795 2797 2798 2799 2801 2804 2806 2808 2811 2813 2816 2819 2822 2825 2828 2829 2831 2832 2833 2835 2837 2838 2839 2840 2840 2840 2840 2839 2838 2836 2835 2833 2831 2828 2826 2823 2820 2818 2815 2812 2809
2714 2715 2716 2715 2714 2714 2716 2718 2719 2721 2723 2724 2726 2728 2730 2732 2734 2734 2735 2737 2739 2742 2745 2748 2751 2753 2754 2756 2758 2760 2763 2765 2767 2769 2772 2775 2777 2778 2779 2779 2780 2781 2782 2784 2787 2790 2792 2794 2796 2799 2801 2803 2805 2808 2811 2814 2818 2820 2822 2824 2825 2827 2828 2830 2832 2833 2834 2835 2835 2835 2835 2834 2832 2831 2829 2827 2825 2822 2820 2818 2814 2811 2808 2805 2802
2699 2700 2701 2702 2702 2702 2704 2705 2707 2709 2711 2712 2715 2718 2720 2722 2724 2726 2727 2728 2731 2734 2738 2740 2743 2746 2747 2748 2750 2751 2753 2755 2758 2761 2764 2767 2769 2770 2770 2771 2773 2774 2775 2777 2781 2785 2787 2789 2792 2793 2795 2797 2800 2803 2806 2810 2813 2815 2816 2818 2820 2821 2823 2825 2826 2828 2829 2830 2830 2830 2829 2828 2827 2825 2823 2822 2819 2816 2814 2812 2808 2805 2802 2798 2795
2687 2686 2687 2688 2689 2691 2692 2693 2695 2697 2699 2701 2704 2707 2710 2713 2716 2717 2719 2720 2723 2726 2729 2732 2735 2737 2739 2741 2742 2743 2745 2747 2750 2754 2757 2760 2761 2761 2762 2764 2765 2766 2768 2772 2777 2781 2783 2785 2786 2787 2789 2791 2795 2798 2802 2805 2807 2809 2810 2812 2814 2815 2817 2819 2821 2822 2823 2824 2824 2824 2824 2822 2821 2820 2818 2816 2814 2811 2808 2806 2803 2800 2797 2793 2789
2676 2675 2675 2676 2678 2679 2681 2682 2684 2686 2688 2691 2694 2697 2700 2704 2707 2709 2711 2713 2715 2718 2721 2724 2726 2728 2731 2734 2736 2737 2738 2739 2742 2745 2749 2751 2751 2753 2755 2757 2758 2760 2763 2767 2772 2776 2778 2779 2780 2782 2784 2787 2791 2794 2798 2800 2802 2804 2805 2806 2808 2810 2811 2813 2815 2817 2818 2819 2819 2818 2818 2817 2815 2814 2812 2810 2808 2805 2803 2800 2797 2794 2791 2788 2783
2666 2665 2665 2666 2667 2669 2671 2673 2675 2677 2679 2682 2685 2688 2692 2695 2699 2702 2704 2706 2708 2710 2712 2715 2717 2720 2724 2727 2728 2729 2730 2731 2733 2737 2741 2743 2745 2747 2749 2751 2753 2756 2760 2763 2766 2769 2771 2772 2775 2778 2781 2785 2788 2791 2794 2796 2798 2799 2801 2802 2803 2805 2807 2808 2810 2812 2813 2813 2813 2812 2812 2811 2809 2808 2806 2804 2802 2800 2797 2795 2792 2789 2785 2782 2778
2657 2657 2658 2659 2660 2661 2663 2665 2667 2669 2672 2675 2678 2681 2685 2688 2691 2694 2696 2698 2700 2702 2704 2706 2709 2712 2715 2718 2720 2722 2723 2724 2727 2731 2735 2737 2739 2741 2742 2745 2748 2752 2755 2758 2760 2762 2764 2766 2770 2773 2777 2781 2785 2787 2790 2792 2794 2795 2797 2798 2799 2801 2803 2804 2806 2807 2808 2808 2807 2806 2806 2805 2803 2802 2800 2798 2796 2794 2792 2789 2786 2783 2779 2775 2772
2650 2651 2652 2653 2654 2655 2657 2659 2661 2663 2666 2669 2672 2675 2678 2682 2685 2687 2689 2691 2693 2695 2697 2699 2701 2704 2707 2709 2712 2714 2716 2718 2721 2724 2727 2729 2732 2734 2737 2740 2743 2746 2750 2752 2754 2756 2759 2762 2765 2769 2773 2777 2780 2783 2786 2789 2790 2792 2794 2795 2796 2798 2799 2800 2801 2802 2803 2802 2802 2801 2800 2799 2797 2796 2794 2792 2790 2788 2786 2783 2780 2777 2773 2770 2765
2644 2645 2647 2648 2649 2650 2652 2654 2656 2658 2660 2663 2666 2669 2672 2675 2678 2680 2682 2684 2686 2688 2689 2692 2694 2697 2699 2702 2704 2706 2709 2712 2715 2718 2720 2723 2726 2728 2731 2735 2738 2741 2744 2747 2749 2752 2755 2758 2762 2766 2769 2773 2776 2779 2782 2785 2787 2789 2791 2792 2794 2795 2796 2797 2797 2798 2797 2797 2796 2795 2794 2793 2792 2790 2788 2786 2784 2782 2780 2778 2775 2771 2768 2764 2759
2641 2641 2643 2644 2645 2646 2648 2649 2652 2654 2656 2659 2662 2664 2667 2669 2671 2673 2675 2677 2679 2681 2683 2685 2688 2690 2693 2696 2698 2699 2702 2706 2709 2711 2714 2717 2719 2722 2726 2729 2732 2736 2739 2742 2745 2748 2752 2755 2759 2762 2766 2769 2772 2775 2778 2780 2783 2785 2787 2789 2790 2791 2792 2793 2793 2793 2793 2792 2791 2791 2789 2788 2786 2785 2783 2780 2778 2777 2775 2772 2769 2766 2762 2758 2753
2638 2639 2639 2640 2641 2643 2644 2646 2648 2650 2652 2655 2657 2659 2662 2664 2666 2668 2670 2672 2673 2675 2677 2679 2682 2685 2687 2689 2691 2693 2696 2700 2703 2706 2708 2711 2713 2717 2720 2723 2727 2730 2734 2738 2741 2744 2748 2752 2756 2759 2763 2765 2768 2771 2774 2776 2779 2782 2783 2785 2787 2787 2788 2788 2788 2788 2788 2787 2786 2786 2784 2783 2781 2779 2777 2775 2773 2771 2769 2766 2763 2760 2756 2752 2747
2637 2637 2638 2638 2639 2640 2642 2643 2645 2647 2649 2651 2653 2655 2657 2659 2661 2663 2665 2667 2669 2671 2673 2674 2677 2679 2682 2684 2686 2688 2691 2695 2698 2701 2704 2706 2709 2712 2715 2718 2722 2726 2730 2734 2738 2741 2745 2749 2753 2756 2760 2763 2765 2768 2771 2774 2776 2778 2780 2782 2783 2783 2784 2784 2784 2784 2783 2783 2782 2781 2779 2778 2776 2773 2771 2770 2768 2765 2763 2761 2757 2753 2749 2745 2740
2637 2636 2637 2637 2638 2639 2640 2641 2643 2644 2646 2648 2650 2652 2654 2656 2658 2660 2661 2663 2665 2667 2669 2670 2673 2675 2677 2680 2682 2685 2688 2691 2694 2697 2700 2702 2705 2708 2712 2715 2719 2723 2727 2731 2735 2739 2743 2747 2751 2754 2757 2760 2763 2765 2768 2770 2773 2775 2776 2778 2779 2779 2780 2780 2779 2779 2779 2778 2777 2776 2774 2772 2771 2768 2766 2764 2762 2760 2757 2755 2751 2747 2742 2738 2733
2637 2636 2636 2636 2637 2638 2639 2640 2641 2643 2644 2646 2647 2649 2651 2653 2655 2657 2658 2660 2662 2663 2665 2667 2670 2672 2674 2677 2679 2682 2685 2688 2691 2694 2697 2700 2703 2706 2710 2714 2717 2721 2725 2729 2733 2737 2741 2745 2749 2752 2755 2758 2760 2763 2765 2767 2769 2771 2772 2774 2774 2775 2775 2775 2775 2775 2774 2773 2771 2770 2768 2766 2765 2763 2761 2759 2756 2754 2752 2748 2745 2740 2736 2731 2727
2637 2636 2636 2636 2637 2637 2638 2639 2640 2642 2643 2644 2645 2647 2649 2650 2652 2654 2655 2657 2659 2661 2663 2665 2667 2669 2672 2674 2677 2680 2683 2686 2689 2692 2695 2698 2702 2705 2709 2713 2717 2720 2724 2727 2731 2735 2739 2743 2747 2750 2753 2755 2758 2759 2761 2763 2765 2767 2768 2770 2770 2771 2771 2771 2771 2770 2769 2768 2766 2764 2762 2761 2759 2757 2755 2753 2750 2748 2745 2742 2738 2734 2730 2725 2722
2637 2636 2636 2636 2636 2637 2637 2638 2639 2640 2642 2643 2644 2645 2646 2648 2649 2651 2653 2654 2656 2658 2661 2663 2665 2667 2670 2672 2675 2678 2681 2685 2688 2691 2694 2697 2701 2705 2708 2712 2716 2719 2723 2727 2730 2734 2738 2742 2745 2748 2750 2752 2754 2756 2758 2760 2762 2763 2764 2766 2766 2767 2767 2767 2766 2765 2764 2762 2761 2759 2757 2756 2754 2751 2749 2747 2744 2742 2739 2735 2731 2727 2724 2720 2716
2636 2636 2636 2636 2636 2636 2637 2638 2638 2639 2641 2642 2643 2644 2645 2646 2647 2649 2651 2653 2655 2657 2659 2661 2663 2665 2668 2671 2674 2677 2680 2684 2687 2691 2694 2698 2701 2705 2708 2712 2715 2718 2722 2726 2730 2733 2737 2740 2743 2745 2748 2750 2752 2753 2755 2757 2758 2760 2761 2762 2762 2762 2763 2762 2761 2760 2758 2757 2756 2754 2752 2750 2748 2746 2744 2741 2739 2736 2733 2729 2725 2722 2718 2714 2711
2637 2636 2635 2635 2635 2636 2636 2637 2637 2638 2639 2640 2641 2643 2644 2645 2646 2648 2650 2652 2654 2656 2658 2660 2662 2664 2667 2670 2674 2677 2680 2683 2687 2691 2695 2698 2702 2705 2708 2711 2715 2718 2722 2726 2729 2732 2735 2738 2741 2743 2745 2747 2749 2751 2752 2754 2755 2756 2757 2757 2757 2757 2757 2757 2756 2755 2753 2751 2750 2749 2747 2745 2743 2740 2738 2736 2733 2729 2726 2723 2719 2716 2712 2709 2705